Voltar ao catálogo

COSMOS 1188 DEB

LostHEO
NORAD 28268·DEBRIS·🇷🇺 Russia

Lançado Jun 14, 1980 de Plesetsk Cosmodrome

Loading…

Próximas Passagens (próximas 24 horas)

TLE

ObsoletoSource: Space-Track

Época: Aug 10, 2008, 14:59 UTC

1 28268U 80050L   08223.62499231 +.00000037 +00000-0 +10000-3 0  9994
2 28268 070.0256 102.0473 6546226 028.4509 354.4251 01.93760733052723

Acompanhe COSMOS 1188 DEB em tempo real com AllMySat

Download on the App Store